,,Stat5,,Stat1,,Stat2,,Stat3,,Stat4,,Wind1,,Wind1,
time,status,PA1M_AVG,status,PR1M_SUM,status,RH1M_AVG,status,SR1M_AVG,status,TA1M_AVG,status,W1dAve1m,status,W1sAve1m,
2002-10-03, 00:00:00,VALID,917.646,VALID,0,VALID,97.555,VALID,0.0169808,VALID,19.4334,VALID,91,VALID,0.0777244,
2002-10-03, 00:01:00,VALID,917.647,VALID,0,VALID,97.4621,VALID,0.0169808,VALID,19.4239,VALID,91,VALID,0.0363176,
2002-10-03, 00:02:00,VALID,917.643,VALID,0,VALID,97.3795,VALID,0.0169808,VALID,19.3909,VALID,91,VALID,0,
2002-10-03, 00:03:00,VALID,917.644,VALID,0,VALID,97.4596,VALID,0.0169808,VALID,19.414,VALID,91,VALID,0.0527344,
2002-10-03, 00:04:00,VALID,917.635,VALID,0,VALID,97.5092,VALID,0,VALID,19.4401,VALID,92,VALID,0.235026,
2002-10-03, 00:05:00,VALID,917.626,VALID,0,VALID,97.6262,VALID,0.0169808,VALID,19.4749,VALID,92,VALID,0.151989,
2002-10-03, 00:06:00,VALID,917.628,VALID,0,VALID,97.6898,VALID,0,VALID,19.497,VALID,154,VALID,0.277995,
2002-10-03, 00:07:00,VALID,917.621,VALID,0,VALID,97.8296,VALID,0,VALID,19.5849,VALID,250,VALID,0.317708,
2002-10-03, 00:08:00,VALID,917.617,VALID,0,VALID,97.6173,VALID,0.0169808,VALID,19.582,VALID,249,VALID,0.164299,
2002-10-03, 00:09:00,VALID,917.608,VALID,0,VALID,97.3629,VALID,0,VALID,19.5462,VALID,249,VALID,0.252111,
2002-10-03, 00:10:00,VALID,917.622,VALID,0,VALID,97.499,VALID,0.0339617,VALID,19.5752,VALID,249,VALID,0.176011,
2002-10-03, 00:11:00,VALID,917.611,VALID,0,VALID,97.5232,VALID,0.0339617,VALID,19.6108,VALID,249,VALID,0.0539773,
2002-10-03, 00:12:00,VALID,917.611,VALID,0,VALID,97.4469,VALID,0.0169808,VALID,19.6013,VALID,228,VALID,0.0334201,
2002-10-03, 00:13:00,VALID,917.605,VALID,0,VALID,97.3566,VALID,0.0169808,VALID,19.6075,VALID,171,VALID,0.212891,
2002-10-03, 00:14:00,VALID,917.58,VALID,0,VALID,97.0883,VALID,0,VALID,19.5693,VALID,148,VALID,0.329545,
2002-10-03, 00:15:00,VALID,917.551,VALID,0,VALID,96.9052,VALID,0.101885,VALID,19.5335,VALID,154,VALID,0.478463,
2002-10-03, 00:16:00,VALID,917.518,VALID,0,VALID,96.7971,VALID,0.0339617,VALID,19.4659,VALID,169,VALID,0.619485,
2002-10-03, 00:17:00,VALID,917.482,VALID,0,VALID,96.9688,VALID,0.0169808,VALID,19.4664,VALID,166,VALID,0.63589,
2002-10-03, 00:18:00,VALID,917.455,VALID,0,VALID,96.8925,VALID,0,VALID,19.4306,VALID,143,VALID,1.04622,
2002-10-03, 00:19:00,VALID,917.434,VALID,0,VALID,96.9242,VALID,0.0169808,VALID,19.408,VALID,146,VALID,0.877604,
2002-10-03, 00:20:00,VALID,917.454,VALID,0,VALID,96.9344,VALID,0.0169808,VALID,19.3681,VALID,133,VALID,0.755445,
2002-10-03, 00:21:00,VALID,917.472,VALID,0,VALID,97.1404,VALID,0.0169808,VALID,19.3752,VALID,136,VALID,0.514358,
2002-10-03, 00:22:00,VALID,917.477,VALID,0,VALID,97.6007,VALID,0.0339617,VALID,19.4172,VALID,138,VALID,0.612592,
2002-10-03, 00:23:00,VALID,917.477,VALID,0,VALID,97.6643,VALID,0.0339617,VALID,19.4724,VALID,121,VALID,0.570076,
2002-10-03, 00:24:00,VALID,917.475,VALID,0,VALID,97.6478,VALID,0.0509425,VALID,19.4786,VALID,140,VALID,0.364366,
2002-10-03, 00:25:00,VALID,917.461,VALID,0,VALID,97.6224,VALID,0.0169808,VALID,19.4821,VALID,149,VALID,0.671658,
2002-10-03, 00:26:00,VALID,917.443,VALID,0,VALID,97.7292,VALID,0.0169808,VALID,19.5017,VALID,146,VALID,0.830019,
2002-10-03, 00:27:00,VALID,917.435,VALID,0,VALID,97.7877,VALID,0,VALID,19.5181,VALID,140,VALID,1.04392,
2002-10-03, 00:28:00,VALID,917.435,VALID,0,VALID,97.7304,VALID,0.0169808,VALID,19.5116,VALID,131,VALID,0.944164,
2002-10-03, 00:29:00,VALID,917.436,VALID,0,VALID,97.7762,VALID,0.0169808,VALID,19.5079,VALID,128,VALID,0.781013,
2002-10-03, 00:30:00,VALID,917.426,VALID,0,VALID,97.8601,VALID,0.0169808,VALID,19.5144,VALID,136,VALID,0.856337,
2002-10-03, 00:31:00,VALID,917.409,VALID,0,VALID,97.9746,VALID,0.0339617,VALID,19.5437,VALID,131,VALID,1.14648,
2002-10-03, 00:32:00,VALID,917.409,VALID,0,VALID,98.0687,VALID,0.0339617,VALID,19.5564,VALID,137,VALID,0.948864,
2002-10-03, 00:33:00,VALID,917.395,VALID,0,VALID,98.0585,VALID,0.0169808,VALID,19.5593,VALID,123,VALID,0.791385,
2002-10-03, 00:34:00,VALID,917.391,VALID,0,VALID,98.1323,VALID,0.0169808,VALID,19.5564,VALID,120,VALID,1.01172,
2002-10-03, 00:35:00,VALID,917.376,VALID,0,VALID,98.3065,VALID,0,VALID,19.5693,VALID,124,VALID,0.812737,
2002-10-03, 00:36:00,VALID,917.368,VALID,0,VALID,98.5227,VALID,0,VALID,19.6177,VALID,135,VALID,1.38303,
2002-10-03, 00:37:00,VALID,917.363,VALID,0,VALID,98.5939,VALID,-0.0169808,VALID,19.6436,VALID,134,VALID,1.58594,
2002-10-03, 00:38:00,VALID,917.354,VALID,0,VALID,98.6778,VALID,0.0339617,VALID,19.6791,VALID,143,VALID,1.74787,
2002-10-03, 00:39:00,VALID,917.354,VALID,0,VALID,98.6727,VALID,0.0509425,VALID,19.7017,VALID,147,VALID,1.95101,
2002-10-03, 00:40:00,VALID,917.354,VALID,0,VALID,98.7159,VALID,0.0339617,VALID,19.7015,VALID,167,VALID,0.977941,
2002-10-03, 00:41:00,VALID,917.36,VALID,0,VALID,98.7375,VALID,0.0339617,VALID,19.7015,VALID,143,VALID,1.56392,
2002-10-03, 00:42:00,VALID,917.361,VALID,0,VALID,98.7732,VALID,0,VALID,19.7015,VALID,149,VALID,1.16667,
2002-10-03, 00:43:00,VALID,917.357,VALID,0,VALID,98.7871,VALID,0.0169808,VALID,19.7079,VALID,144,VALID,0.700738,
2002-10-03, 00:44:00,VALID,917.35,VALID,0,VALID,98.8088,VALID,0.0169808,VALID,19.7079,VALID,130,VALID,0.508049,
2002-10-03, 00:45:00,VALID,917.362,VALID,0,VALID,98.8011,VALID,0,VALID,19.7047,VALID,164,VALID,0.726563,
2002-10-03, 00:46:00,VALID,917.346,VALID,0,VALID,98.8215,VALID,0.0169808,VALID,19.7117,VALID,147,VALID,0.733456,
2002-10-03, 00:47:00,VALID,917.326,VALID,0,VALID,98.8062,VALID,0.0679233,VALID,19.6982,VALID,149,VALID,0.732718,
2002-10-03, 00:48:00,VALID,917.302,VALID,0,VALID,98.8406,VALID,0.0339617,VALID,19.7022,VALID,110,VALID,0.284939,
2002-10-03, 00:49:00,VALID,917.283,VALID,0,VALID,98.8494,VALID,0,VALID,19.6888,VALID,96,VALID,0.105903,
2002-10-03, 00:50:00,VALID,917.267,VALID,0,VALID,98.8456,VALID,0.0169808,VALID,19.6761,VALID,118,VALID,0.284091,
2002-10-03, 00:51:00,VALID,917.242,VALID,0,VALID,98.8622,VALID,0,VALID,19.6729,VALID,175,VALID,0.147171,
2002-10-03, 00:52:00,VALID,917.247,VALID,0,VALID,98.8215,VALID,0,VALID,19.6565,VALID,152,VALID,0.894531,
2002-10-03, 00:53:00,VALID,917.246,VALID,0,VALID,98.8113,VALID,0,VALID,19.6307,VALID,145,VALID,0.3866,
2002-10-03, 00:54:00,VALID,917.239,VALID,0,VALID,98.8342,VALID,0.0339617,VALID,19.6143,VALID,144,VALID,0.0922309,
2002-10-03, 00:55:00,VALID,917.234,VALID,0,VALID,98.8393,VALID,0.0169808,VALID,19.6115,VALID,171,VALID,0.530165,
2002-10-03, 00:56:00,VALID,917.214,VALID,0,VALID,98.8227,VALID,0,VALID,19.5988,VALID,184,VALID,0.738636,
2002-10-03, 00:57:00,VALID,917.197,VALID,0,VALID,98.7935,VALID,0,VALID,19.5626,VALID,170,VALID,0.849873,
2002-10-03, 00:58:00,VALID,917.177,VALID,0,VALID,98.7884,VALID,0.0169808,VALID,19.5333,VALID,172,VALID,1.26769,
2002-10-03, 00:59:00,VALID,917.148,VALID,0,VALID,98.7999,VALID,-0.0169808,VALID,19.5181,VALID,168,VALID,1.34446,
2002-10-03, 01:00:00,VALID,917.131,VALID,0,VALID,98.8113,VALID,0,VALID,19.5086,VALID,173,VALID,0.945964,
2002-10-03, 01:01:00,VALID,917.104,VALID,0,VALID,98.8584,VALID,0,VALID,19.488,VALID,164,VALID,0.763672,
2002-10-03, 01:02:00,VALID,917.094,VALID,0,VALID,98.8749,VALID,0,VALID,19.4918,VALID,166,VALID,1.16454,
2002-10-03, 01:03:00,VALID,917.092,VALID,0,VALID,98.8647,VALID,0,VALID,19.4885,VALID,151,VALID,1.04835,
2002-10-03, 01:04:00,VALID,916.664,VALID,0,VALID,98.8685,VALID,0.0169808,VALID,19.4724,VALID,168,VALID,1.36742,
2002-10-03, 01:05:00,VALID,917.083,VALID,0,VALID,98.8825,VALID,-0.0169808,VALID,19.4756,VALID,172,VALID,1.0303,
2002-10-03, 01:06:00,VALID,917.046,VALID,0,VALID,98.9156,VALID,0.0169808,VALID,19.4759,VALID,172,VALID,1.34809,
2002-10-03, 01:07:00,VALID,917.025,VALID,0,VALID,98.9258,VALID,0,VALID,19.4759,VALID,169,VALID,1.41949,
2002-10-03, 01:08:00,VALID,917.005,VALID,0,VALID,98.9334,VALID,0.0169808,VALID,19.4858,VALID,159,VALID,1.03456,
2002-10-03, 01:09:00,VALID,916.983,VALID,0,VALID,98.927,VALID,0,VALID,19.4791,VALID,160,VALID,0.982897,
2002-10-03, 01:10:00,VALID,916.945,VALID,0,VALID,98.9219,VALID,0,VALID,19.4759,VALID,163,VALID,1.21461,
2002-10-03, 01:11:00,VALID,916.931,VALID,0,VALID,98.9219,VALID,0,VALID,19.4726,VALID,143,VALID,0.901515,
2002-10-03, 01:12:00,VALID,916.915,VALID,0,VALID,98.9156,VALID,0,VALID,19.459,VALID,152,VALID,0.933811,
2002-10-03, 01:13:00,VALID,916.89,VALID,0,VALID,98.9334,VALID,0.0169808,VALID,19.46,VALID,153,VALID,0.593316,
2002-10-03, 01:14:00,VALID,916.875,VALID,0,VALID,98.9143,VALID,0,VALID,19.4565,VALID,152,VALID,1.30895,
2002-10-03, 01:15:00,VALID,916.855,VALID,0,VALID,98.9499,VALID,0.0169808,VALID,19.46,VALID,165,VALID,0.989865,
2002-10-03, 01:16:00,VALID,916.867,VALID,0,VALID,98.9575,VALID,0,VALID,19.4696,VALID,153,VALID,1.59743,
2002-10-03, 01:17:00,VALID,916.85,VALID,0,VALID,98.9652,VALID,-0.0169808,VALID,19.492,VALID,129,VALID,1.18371,
2002-10-03, 01:18:00,VALID,916.847,VALID,0,VALID,98.9868,VALID,-0.118866,VALID,19.4999,VALID,146,VALID,1.58333,
2002-10-03, 01:19:00,VALID,916.844,VALID,0,VALID,98.9753,VALID,-0.118866,VALID,19.5158,VALID,142,VALID,1.50629,
2002-10-03, 01:20:00,VALID,916.835,VALID,0,VALID,98.9436,VALID,-0.0849042,VALID,19.5223,VALID,178,VALID,0.796875,
2002-10-03, 01:21:00,VALID,916.819,VALID,0,VALID,98.8901,VALID,-0.118866,VALID,19.5258,VALID,163,VALID,1.10811,
2002-10-03, 01:22:00,VALID,916.802,VALID,0,VALID,98.8469,VALID,-0.135847,VALID,19.5228,VALID,154,VALID,1.26677,
2002-10-03, 01:23:00,VALID,916.779,VALID,0,VALID,98.8215,VALID,-0.101885,VALID,19.5258,VALID,139,VALID,0.479403,
2002-10-03, 01:24:00,VALID,916.758,VALID,0,VALID,98.7999,VALID,-0.118866,VALID,19.5193,VALID,140,VALID,0.876085,
2002-10-03, 01:25:00,VALID,916.739,VALID,0,VALID,98.7426,VALID,-0.118866,VALID,19.5188,VALID,138,VALID,1.31055,
2002-10-03, 01:26:00,VALID,916.72,VALID,0,VALID,98.688,VALID,-0.118866,VALID,19.5392,VALID,164,VALID,1.54498,
2002-10-03, 01:27:00,VALID,916.695,VALID,0,VALID,98.6206,VALID,-0.135847,VALID,19.5424,VALID,138,VALID,1.49177,
2002-10-03, 01:28:00,VALID,916.68,VALID,0,VALID,98.557,VALID,-0.101885,VALID,19.5355,VALID,148,VALID,1.18015,
2002-10-03, 01:29:00,VALID,916.676,VALID,0,VALID,98.4934,VALID,-0.101885,VALID,19.5325,VALID,143,VALID,1.34848,
2002-10-03, 01:30:00,VALID,916.678,VALID,0,VALID,98.426,VALID,-0.135847,VALID,19.5454,VALID,129,VALID,0.461372,
2002-10-03, 01:31:00,VALID,916.69,VALID,0,VALID,98.3904,VALID,-0.101885,VALID,19.5452,VALID,101,VALID,0.102865,
2002-10-03, 01:32:00,VALID,916.703,VALID,0,VALID,98.3408,VALID,-0.101885,VALID,19.5486,VALID,119,VALID,0.108428,
2002-10-03, 01:33:00,VALID,916.705,VALID,0,VALID,98.2874,VALID,0,VALID,19.5437,VALID,123,VALID,0.0194257,
2002-10-03, 01:34:00,VALID,916.72,VALID,0,VALID,98.2734,VALID,-0.0169808,VALID,19.5539,VALID,95,VALID,0.0650276,
2002-10-03, 01:35:00,VALID,916.728,VALID,0,VALID,98.2225,VALID,0,VALID,19.5536,VALID,51,VALID,0.0236742,
2002-10-03, 01:36:00,VALID,916.73,VALID,0,VALID,98.1374,VALID,0,VALID,19.5531,VALID,64,VALID,0.144097,
2002-10-03, 01:37:00,VALID,916.718,VALID,0,VALID,98.0496,VALID,0,VALID,19.5536,VALID,109,VALID,0.611328,
2002-10-03, 01:38:00,VALID,916.7,VALID,0,VALID,97.9873,VALID,0,VALID,19.5372,VALID,150,VALID,0.333097,
2002-10-03, 01:39:00,VALID,916.664,VALID,0,VALID,97.9619,VALID,-0.0169808,VALID,19.5372,VALID,155,VALID,0.436867,
2002-10-03, 01:40:00,VALID,916.628,VALID,0,VALID,97.9174,VALID,-0.0169808,VALID,19.5342,VALID,103,VALID,0.386489,
2002-10-03, 01:41:00,VALID,916.598,VALID,0,VALID,97.822,VALID,0,VALID,19.5246,VALID,102,VALID,0.309186,
2002-10-03, 01:42:00,VALID,916.547,VALID,0,VALID,97.8258,VALID,-0.0169808,VALID,19.5211,VALID,105,VALID,0.0598958,
2002-10-03, 01:43:00,VALID,916.526,VALID,0,VALID,97.7686,VALID,0,VALID,19.5211,VALID,152,VALID,0.311632,
2002-10-03, 01:44:00,VALID,916.532,VALID,0,VALID,97.7266,VALID,0.0169808,VALID,19.5017,VALID,178,VALID,0.0487689,
2002-10-03, 01:45:00,VALID,916.534,VALID,0,VALID,97.6834,VALID,0,VALID,19.492,VALID,178,VALID,0.186867,
2002-10-03, 01:46:00,VALID,916.537,VALID,0,VALID,97.6643,VALID,0.0169808,VALID,19.4985,VALID,178,VALID,0.169347,
2002-10-03, 01:47:00,VALID,916.537,VALID,0,VALID,97.6351,VALID,0,VALID,19.4955,VALID,194,VALID,0.257102,
2002-10-03, 01:48:00,VALID,916.52,VALID,0,VALID,97.6274,VALID,0,VALID,19.4726,VALID,200,VALID,0.130425,
2002-10-03, 01:49:00,VALID,916.502,VALID,0,VALID,97.6058,VALID,0,VALID,19.4627,VALID,198,VALID,0.342448,
2002-10-03, 01:50:00,VALID,916.479,VALID,0,VALID,97.5728,VALID,0,VALID,19.4403,VALID,183,VALID,0.504972,
2002-10-03, 01:51:00,VALID,916.443,VALID,0,VALID,97.5855,VALID,0,VALID,19.4274,VALID,174,VALID,0.981419,
2002-10-03, 01:52:00,VALID,916.441,VALID,0,VALID,97.574,VALID,-0.0169808,VALID,19.4083,VALID,158,VALID,0.668658,
2002-10-03, 01:53:00,VALID,916.422,VALID,0,VALID,97.5715,VALID,0,VALID,19.3824,VALID,155,VALID,0.726326,
2002-10-03, 01:54:00,VALID,916.419,VALID,0,VALID,97.5779,VALID,-0.0169808,VALID,19.3434,VALID,151,VALID,1.08247,
2002-10-03, 01:55:00,VALID,916.411,VALID,0,VALID,97.6046,VALID,-0.0169808,VALID,19.3144,VALID,137,VALID,0.865451,
2002-10-03, 01:56:00,VALID,916.397,VALID,0,VALID,97.6808,VALID,0,VALID,19.2855,VALID,151,VALID,0.782907,
2002-10-03, 01:57:00,VALID,916.378,VALID,0,VALID,97.7203,VALID,0,VALID,19.2528,VALID,161,VALID,0.309333,
2002-10-03, 01:58:00,VALID,916.368,VALID,0,VALID,97.7813,VALID,0,VALID,19.2177,VALID,146,VALID,0.502757,
2002-10-03, 01:59:00,VALID,916.347,VALID,0,VALID,97.8487,VALID,0,VALID,19.2046,VALID,148,VALID,0.446496,
2002-10-03, 02:00:00,VALID,916.349,VALID,0,VALID,97.8614,VALID,-0.0169808,VALID,19.179,VALID,153,VALID,0.534722,
2002-10-03, 02:01:00,VALID,916.348,VALID,0,VALID,97.8945,VALID,0,VALID,19.1628,VALID,155,VALID,0.849826,
2002-10-03, 02:02:00,VALID,916.344,VALID,0,VALID,97.9924,VALID,-0.0169808,VALID,19.1501,VALID,160,VALID,0.684896,
2002-10-03, 02:03:00,VALID,916.358,VALID,0,VALID,98.0102,VALID,-0.0169808,VALID,19.134,VALID,162,VALID,0.509502,
2002-10-03, 02:04:00,VALID,916.365,VALID,0,VALID,98.0382,VALID,-0.0169808,VALID,19.1077,VALID,204,VALID,0.286535,
2002-10-03, 02:05:00,VALID,916.349,VALID,0,VALID,98.1068,VALID,0.0169808,VALID,19.1044,VALID,202,VALID,0.302557,
2002-10-03, 02:06:00,VALID,916.351,VALID,0,VALID,98.1056,VALID,0,VALID,19.0985,VALID,239,VALID,0.626519,
2002-10-03, 02:07:00,VALID,916.355,VALID,0,VALID,98.145,VALID,0,VALID,19.0788,VALID,249,VALID,0.510851,
2002-10-03, 02:08:00,VALID,916.378,VALID,0,VALID,98.1831,VALID,0,VALID,19.0726,VALID,264,VALID,0.362453,
2002-10-03, 02:09:00,VALID,916.39,VALID,0,VALID,98.1997,VALID,0,VALID,19.0694,VALID,265,VALID,0.309966,
2002-10-03, 02:10:00,VALID,916.425,VALID,0,VALID,98.2721,VALID,-0.0169808,VALID,19.0595,VALID,264,VALID,0.436351,
2002-10-03, 02:11:00,VALID,916.424,VALID,0,VALID,98.3548,VALID,0,VALID,19.0888,VALID,264,VALID,0.100852,
2002-10-03, 02:12:00,VALID,916.432,VALID,0,VALID,98.4031,VALID,-0.0169808,VALID,19.0985,VALID,264,VALID,0.22092,
2002-10-03, 02:13:00,VALID,916.414,VALID,0,VALID,98.4425,VALID,0,VALID,19.1049,VALID,264,VALID,0.424262,
2002-10-03, 02:14:00,VALID,916.396,VALID,0,VALID,98.487,VALID,0,VALID,19.1119,VALID,259,VALID,0.609612,
2002-10-03, 02:15:00,VALID,916.394,VALID,0,VALID,98.5544,VALID,-0.0169808,VALID,19.1243,VALID,249,VALID,0.652027,
2002-10-03, 02:16:00,VALID,916.376,VALID,0,VALID,98.5951,VALID,-0.0339617,VALID,19.134,VALID,235,VALID,0.543428,
2002-10-03, 02:17:00,VALID,916.37,VALID,0,VALID,98.6028,VALID,-0.0169808,VALID,19.1416,VALID,214,VALID,0.169981,
2002-10-03, 02:18:00,VALID,916.367,VALID,0,VALID,98.6015,VALID,-0.0339617,VALID,19.1379,VALID,187,VALID,0.237413,
2002-10-03, 02:19:00,VALID,916.352,VALID,0,VALID,98.6129,VALID,-0.0509425,VALID,19.128,VALID,187,VALID,0.0269097,
2002-10-03, 02:20:00,VALID,916.337,VALID,0,VALID,98.6218,VALID,-0.101885,VALID,19.1253,VALID,193,VALID,0.290009,
2002-10-03, 02:21:00,VALID,916.31,VALID,0,VALID,98.6511,VALID,-0.0509425,VALID,19.1315,VALID,195,VALID,0.128167,
2002-10-03, 02:22:00,VALID,916.293,VALID,0,VALID,98.6104,VALID,-0.0679233,VALID,19.1186,VALID,196,VALID,0,
2002-10-03, 02:23:00,VALID,916.261,VALID,0,VALID,98.4998,VALID,-0.0169808,VALID,19.054,VALID,196,VALID,0,
2002-10-03, 02:24:00,VALID,916.247,VALID,0,VALID,98.4375,VALID,-0.0339617,VALID,19.0115,VALID,196,VALID,0,
2002-10-03, 02:25:00,VALID,916.212,VALID,0,VALID,98.1361,VALID,-0.0339617,VALID,18.8987,VALID,196,VALID,0,
2002-10-03, 02:26:00,VALID,916.193,VALID,0,VALID,97.8423,VALID,-0.0169808,VALID,18.7566,VALID,196,VALID,0,
2002-10-03, 02:27:00,VALID,916.18,VALID,0,VALID,97.9568,VALID,-0.0509425,VALID,18.7082,VALID,196,VALID,0,
2002-10-03, 02:28:00,VALID,916.172,VALID,0,VALID,98.0865,VALID,-0.0679233,VALID,18.6985,VALID,196,VALID,0,
2002-10-03, 02:29:00,VALID,916.165,VALID,0,VALID,98.1043,VALID,-0.0339617,VALID,18.6985,VALID,196,VALID,0,
2002-10-03, 02:30:00,VALID,916.17,VALID,0,VALID,97.9072,VALID,-0.0339617,VALID,18.6371,VALID,196,VALID,0.134549,
2002-10-03, 02:31:00,VALID,916.185,VALID,0,VALID,97.8195,VALID,-0.0339617,VALID,18.5658,VALID,196,VALID,0.595703,
2002-10-03, 02:32:00,VALID,916.196,VALID,0,VALID,97.6313,VALID,-0.0339617,VALID,18.4923,VALID,196,VALID,0.757102,
2002-10-03, 02:33:00,VALID,916.187,VALID,0,VALID,97.5728,VALID,-0.0169808,VALID,18.4277,VALID,196,VALID,0.60853,
2002-10-03, 02:34:00,VALID,916.191,VALID,0,VALID,97.7203,VALID,-0.0679233,VALID,18.4115,VALID,196,VALID,0.271829,
2002-10-03, 02:35:00,VALID,916.194,VALID,0,VALID,98.2086,VALID,-0.0169808,VALID,18.4826,VALID,196,VALID,0.0179924,
2002-10-03, 02:36:00,VALID,916.202,VALID,0,VALID,98.5761,VALID,-0.0339617,VALID,18.5762,VALID,196,VALID,0.062934,
2002-10-03, 02:37:00,VALID,916.223,VALID,0,VALID,98.6892,VALID,-0.0339617,VALID,18.6733,VALID,186,VALID,0.186198,
2002-10-03, 02:38:00,VALID,916.236,VALID,0,VALID,98.6307,VALID,0,VALID,18.6923,VALID,186,VALID,0.0340909,
2002-10-03, 02:39:00,VALID,916.238,VALID,0,VALID,98.6346,VALID,-0.0339617,VALID,18.7151,VALID,186,VALID,0,
2002-10-03, 02:40:00,VALID,916.238,VALID,0,VALID,98.7096,VALID,-0.0339617,VALID,18.7444,VALID,186,VALID,0,
2002-10-03, 02:41:00,VALID,916.229,VALID,0,VALID,98.7121,VALID,-0.0339617,VALID,18.7799,VALID,186,VALID,0.278646,
2002-10-03, 02:42:00,VALID,916.235,VALID,0,VALID,98.7414,VALID,-0.0169808,VALID,18.8286,VALID,188,VALID,0.392361,
2002-10-03, 02:43:00,VALID,916.233,VALID,0,VALID,98.7846,VALID,-0.0679233,VALID,18.8865,VALID,178,VALID,0.460069,
2002-10-03, 02:44:00,VALID,916.227,VALID,0,VALID,98.8215,VALID,0,VALID,18.9218,VALID,148,VALID,0.250237,
2002-10-03, 02:45:00,VALID,916.23,VALID,0,VALID,98.515,VALID,-0.0169808,VALID,18.9223,VALID,144,VALID,0.415118,
2002-10-03, 02:46:00,VALID,916.232,VALID,0,VALID,98.384,VALID,-0.0509425,VALID,18.8639,VALID,176,VALID,0.880285,
2002-10-03, 02:47:00,VALID,916.244,VALID,0,VALID,98.5265,VALID,0,VALID,18.9056,VALID,112,VALID,0.498343,
2002-10-03, 02:48:00,VALID,916.255,VALID,0,VALID,98.4196,VALID,0.0509425,VALID,18.9298,VALID,93,VALID,0.521484,
2002-10-03, 02:49:00,VALID,916.274,VALID,0,VALID,98.1653,VALID,0.0679233,VALID,18.9298,VALID,68,VALID,0.582465,
2002-10-03, 02:50:00,VALID,916.297,VALID,0,VALID,97.8919,VALID,0.0849042,VALID,18.898,VALID,61,VALID,0.60535,
2002-10-03, 02:51:00,VALID,916.317,VALID,0,VALID,97.5575,VALID,0.0849042,VALID,18.8431,VALID,58,VALID,0.602618,
2002-10-03, 02:52:00,VALID,916.343,VALID,0,VALID,97.3922,VALID,0.101885,VALID,18.8242,VALID,58,VALID,0.453355,
2002-10-03, 02:53:00,VALID,916.362,VALID,0,VALID,97.3273,VALID,0.101885,VALID,18.7944,VALID,67,VALID,0.453362,
2002-10-03, 02:54:00,VALID,916.37,VALID,0,VALID,97.4952,VALID,0.101885,VALID,18.8009,VALID,104,VALID,0.508247,
2002-10-03, 02:55:00,VALID,916.384,VALID,0,VALID,97.7355,VALID,0.0339617,VALID,18.8528,VALID,146,VALID,0.716146,
2002-10-03, 02:56:00,VALID,916.384,VALID,0,VALID,97.8767,VALID,0.0849042,VALID,18.9273,VALID,148,VALID,0.803504,
2002-10-03, 02:57:00,VALID,916.385,VALID,0,VALID,97.8703,VALID,0.0509425,VALID,18.9785,VALID,149,VALID,0.913429,
2002-10-03, 02:58:00,VALID,916.361,VALID,0,VALID,97.663,VALID,0.0679233,VALID,19.0212,VALID,144,VALID,1.0579,
2002-10-03, 02:59:00,VALID,916.34,VALID,0,VALID,97.349,VALID,0.0679233,VALID,19.0274,VALID,141,VALID,0.9259,
2002-10-03, 03:00:00,VALID,916.334,VALID,0,VALID,96.9522,VALID,0.0679233,VALID,18.9919,VALID,134,VALID,0.722873,
2002-10-03, 03:01:00,VALID,916.312,VALID,0,VALID,96.7411,VALID,0.0679233,VALID,18.9335,VALID,116,VALID,0.706814,
2002-10-03, 03:02:00,VALID,916.297,VALID,0,VALID,96.7526,VALID,0.0339617,VALID,18.8816,VALID,102,VALID,0.629498,
2002-10-03, 03:03:00,VALID,916.278,VALID,0,VALID,96.9573,VALID,0,VALID,18.8666,VALID,111,VALID,0.711149,
2002-10-03, 03:04:00,VALID,916.276,VALID,0,VALID,97.1506,VALID,-0.0339617,VALID,18.8768,VALID,112,VALID,0.730699,
2002-10-03, 03:05:00,VALID,916.279,VALID,0,VALID,96.9891,VALID,-0.0339617,VALID,18.8768,VALID,84,VALID,0.811316,
2002-10-03, 03:06:00,VALID,916.285,VALID,0,VALID,95.9909,VALID,-0.0339617,VALID,18.7086,VALID,39,VALID,1.0089,
2002-10-03, 03:07:00,VALID,916.298,VALID,0,VALID,95.2801,VALID,-0.0339617,VALID,18.483,VALID,35,VALID,1.05556,
2002-10-03, 03:08:00,VALID,916.293,VALID,0,VALID,95.7505,VALID,-0.0339617,VALID,18.3636,VALID,47,VALID,1.0116,
2002-10-03, 03:09:00,VALID,916.289,VALID,0,VALID,96.5885,VALID,-0.0169808,VALID,18.347,VALID,59,VALID,1.03758,
2002-10-03, 03:10:00,VALID,916.282,VALID,0,VALID,97.2612,VALID,-0.0509425,VALID,18.3894,VALID,80,VALID,1.23208,
2002-10-03, 03:11:00,VALID,916.265,VALID,0,VALID,97.5079,VALID,-0.0509425,VALID,18.4286,VALID,76,VALID,1.23982,
2002-10-03, 03:12:00,VALID,916.261,VALID,0,VALID,97.4431,VALID,-0.0679233,VALID,18.412,VALID,84,VALID,0.862413,
2002-10-03, 03:13:00,VALID,916.265,VALID,0,VALID,97.4748,VALID,-0.0509425,VALID,18.3769,VALID,80,VALID,1.08702,
2002-10-03, 03:14:00,VALID,916.263,VALID,0,VALID,98.0013,VALID,-0.0169808,VALID,18.3991,VALID,95,VALID,1.0883,
2002-10-03, 03:15:00,VALID,916.241,VALID,0,VALID,97.9937,VALID,-0.0679233,VALID,18.4475,VALID,105,VALID,0.961571,
2002-10-03, 03:16:00,VALID,916.215,VALID,0,VALID,97.6325,VALID,-0.0679233,VALID,18.4155,VALID,78,VALID,0.630744,
2002-10-03, 03:17:00,VALID,916.179,VALID,0,VALID,96.9331,VALID,-0.0509425,VALID,18.2669,VALID,72,VALID,0.294271,
2002-10-03, 03:18:00,VALID,916.161,VALID,0,VALID,97.1938,VALID,0.0509425,VALID,18.191,VALID,100,VALID,0.540799,
2002-10-03, 03:19:00,VALID,916.135,VALID,0,VALID,97.8958,VALID,0.0339617,VALID,18.2455,VALID,124,VALID,0.899523,
2002-10-03, 03:20:00,VALID,916.128,VALID,0,VALID,98.089,VALID,0.0509425,VALID,18.3177,VALID,127,VALID,1.04048,
2002-10-03, 03:21:00,VALID,916.131,VALID,0,VALID,98.1857,VALID,0.0339617,VALID,18.3589,VALID,114,VALID,0.925042,
2002-10-03, 03:22:01,VALID,916.127,VALID,0,VALID,98.1819,VALID,0.0509425,VALID,18.3691,VALID,112,VALID,1.09007,
2002-10-03, 03:23:00,VALID,916.13,VALID,0,VALID,98.1412,VALID,0.0339617,VALID,18.3465,VALID,119,VALID,1.07765,
2002-10-03, 03:24:00,VALID,916.134,VALID,0,VALID,98.1882,VALID,0.0679233,VALID,18.3147,VALID,127,VALID,0.939887,
2002-10-03, 03:25:00,VALID,916.118,VALID,0,VALID,98.3484,VALID,0.0509425,VALID,18.2981,VALID,130,VALID,1.05881,
2002-10-03, 03:26:00,VALID,916.092,VALID,0,VALID,98.4553,VALID,0.0169808,VALID,18.308,VALID,129,VALID,1.03504,
2002-10-03, 03:27:00,VALID,916.067,VALID,0,VALID,98.5048,VALID,0.0169808,VALID,18.3015,VALID,130,VALID,0.933488,
2002-10-03, 03:28:00,VALID,916.047,VALID,0,VALID,98.6066,VALID,0.0339617,VALID,18.2916,VALID,129,VALID,1.01333,
2002-10-03, 03:29:00,VALID,916.021,VALID,0,VALID,98.7414,VALID,0.0169808,VALID,18.308,VALID,119,VALID,1.10275,
2002-10-03, 03:30:00,VALID,915.997,VALID,0,VALID,98.8088,VALID,0.0679233,VALID,18.3274,VALID,107,VALID,1.50369,
2002-10-03, 03:31:01,VALID,915.955,VALID,0,VALID,98.9537,VALID,0.0339617,VALID,18.3534,VALID,112,VALID,1.5727,
2002-10-03, 03:32:00,VALID,915.912,VALID,0,VALID,99.0097,VALID,0.0169808,VALID,18.379,VALID,113,VALID,1.63731,
2002-10-03, 03:33:00,VALID,915.885,VALID,0,VALID,99.0262,VALID,-0.0679233,VALID,18.3966,VALID,100,VALID,1.33995,